Flag for Spain Weather past 2 weeks in Sevilla, Spain

Now
55 °F

Passing clouds.


Feels Like: 54 °F
Forecast: 54 / 70 °F
Wind: 7 mph from Southwest

Location: Sevilla / San Pablo


UV Index: 5 (Moderate)

Visibility: N/A


Pressure: 29.65 "Hg

Humidity: 94%

Dew point: 54 °F

Location of SevillaLocation

Historic Weather in Sevilla

°F

Sevilla temperature yesterday

Maximum temperature yesterday: 64 °F (at 1:00 PM)
Minimum temperature yesterday: 55 °F (at 6:30 AM)
Average temperature yesterday: 60 °F

Past Weeks' High & Low Weather Summary

 TemperatureHumidityPressure
High90 °F (Apr 17, 6:30 PM)100% (Apr 13, 7:00 AM)30.12 "Hg (Apr 13, 7:00 AM)
Low52 °F (Apr 13, 6:00 AM)22% (Apr 8, 7:00 PM)29.59 "Hg (Apr 20, 10:00 PM)
Average68 °F65%29.97 "Hg
* Reported Apr 6 4:30 AM — Apr 21 4:30 AM, Sevilla, Weather by CustomWeather, © 2014

Note: Actual official high and low records may vary slightly from our data, if they occured in-between our weather recording intervals... More about our weather records

Advertising

Historic Weather Conditions — Data for Previous 24 hours

 ConditionsComfort  
Time TempWeatherWind HumidityBarometerVisibility
4:30 AM
Apr 21
57 °FClear.10 mph88%29.65 "Hg10 mi
1:00 AM59 °FPassing clouds.9 mph94%29.65 "Hg6 mi
12:30 AM59 °FPassing clouds.8 mph94%29.65 "Hg6 mi
12:00 AM59 °FPassing clouds.7 mph94%29.65 "Hg6 mi
11:00 PM
Apr 20
57 °FMostly cloudy.9 mph94%29.62 "Hg6 mi
10:50 PM59 °FMostly cloudy.10 mph82%29.62 "Hg6 mi
10:30 PM61 °FRain. Mostly cloudy.15 mph88%29.62 "Hg6 mi
10:00 PM61 °FCloudy.16 mph88%29.59 "Hg6 mi
9:30 PM61 °FRain. Mostly cloudy.10 mph88%29.62 "HgN/A
9:00 PM61 °FBroken clouds.10 mph88%29.62 "HgN/A
8:30 PM61 °FBroken clouds.12 mph83%29.62 "HgN/A
8:00 PM63 °FBroken clouds.9 mph83%29.62 "HgN/A
7:30 PM63 °FBroken clouds.12 mph73%29.62 "HgN/A
7:00 PM63 °FScattered clouds.12 mph77%29.65 "HgN/A
6:30 PM64 °FScattered clouds.14 mph73%29.65 "HgN/A
6:00 PM63 °FScattered clouds.10 mph83%29.65 "HgN/A
5:30 PM63 °FRain. More clouds than sun.10 mph83%29.65 "HgN/A
5:00 PM61 °FRain. More clouds than sun.12 mph88%29.68 "Hg6 mi
4:30 PM63 °FRain. Overcast.8 mph88%29.65 "Hg6 mi
4:00 PM64 °FRain. Overcast.10 mph78%29.68 "Hg6 mi
3:30 PM63 °FRain. Cloudy.10 mph83%29.68 "Hg6 mi
3:00 PM59 °FRain. Mostly cloudy.7 mph88%29.71 "Hg6 mi
2:45 PM59 °FCloudy.8 mph94%29.71 "Hg5 mi
2:30 PM59 °FRain showers. More clouds than sun.9 mph94%29.71 "Hg2 mi
2:00 PM61 °FRain. More clouds than sun.13 mph88%29.71 "HgN/A
1:30 PM64 °FRain. Broken clouds.2 mph73%29.71 "HgN/A
1:00 PM64 °FPartly sunny.2 mph73%29.74 "HgN/A
12:30 PM63 °FPartly sunny.7 mph77%29.74 "HgN/A
12:00 PM63 °FScattered clouds.8 mph77%29.74 "HgN/A
11:30 AM63 °FScattered clouds.6 mph77%29.74 "HgN/A
11:00 AM59 °FScattered clouds.7 mph88%29.74 "HgN/A
10:30 AM59 °FPartly sunny.3 mph88%29.74 "HgN/A
10:00 AM59 °FScattered clouds.3 mph88%29.77 "HgN/A
9:30 AM57 °FPartly sunny.3 mph94%29.77 "HgN/A
9:00 AM55 °FPartly sunny.3 mph100%29.74 "HgN/A
8:30 AM55 °FPassing clouds.2 mph94%29.74 "HgN/A
8:00 AM55 °FPassing clouds.2 mph94%29.74 "HgN/A
7:30 AM55 °FLight rain. Passing clouds.No wind94%29.74 "Hg5 mi
7:00 AM55 °FPassing clouds.No wind94%29.74 "HgN/A
6:30 AM55 °FPassing clouds.1 mph94%29.77 "HgN/A
6:00 AM57 °FPassing clouds.5 mph82%29.77 "HgN/A
Weather by CustomWeather, © 2014

See weather overview